Regional Weather Roundup
Issued by NWS Grand Forks, ND

Home | Current Version | Previous Version | Graphics & Text | Print | Product List | Glossary On
Versions: 1 2 3 4 5 6 7 8 9 10 11 12 13 14 15 16 17 18 19 20 21 22 23 24 25 26 27 28 29 30 31 32 33 34 35 36 37 38 39 40 41 42 43 44 45 46 47 48 49 50
000
ASUS43 KFGF 220710
RWRFGF
PRAIRIE TO PINES  WEATHER ROUNDUP
NATIONAL WEATHER SERVICE EASTERN NORTH DAKOTA/GRAND FORKS ND
200 AM CDT FRI AUG 22 2014

 **SATELLITE DATA USED TO AUGMENT SKY COVER AT AUTOMATED STATIONS**
 *****  WEATHER ACROSS EASTERN NORTH DAKOTA  *****

CITY           SKY/WX    TMP DP  RH WIND       PRES   REMARKS
GRAND FORKS    CLOUDY    68  67  96 N8        29.88S
GRAND FRKS AFB CLOUDY    67  67 100 N6        29.90S
GRAND FRKS NWS   N/A     55 N/A N/A N5          N/A
DEVILS LAKE    CLOUDY    66  61  82 N12       29.93S
FARGO          FOG       64  63  96 CALM      29.88R VSB 1/4
WAHPETON ARPT  CLOUDY    64  63  94 CALM      29.88S VSB 1/4
$$

 ***** WEATHER ACROSS CENTRAL AND WESTERN NORTH DAKOTA  *****

CITY           SKY/WX    TMP DP  RH WIND       PRES   REMARKS
BISMARCK       CLOUDY    68  64  87 N3        29.99R
MINOT          CLOUDY    64  61  90 N12       29.99R
JAMESTOWN      CLEAR     65  63  93 N6        29.92R
MINOT AFB      CLOUDY    63  63 100 N10       30.00R
GARRISON         N/A     64  62  93 N7        29.99R
WILLISTON      CLOUDY    63  59  87 N7        30.03F
DICKINSON      RAIN      62  60  93 E8        30.00F FOG
HETTINGER      HVY RAIN  61  58  90 CALM      30.06R FOG
$$

 *****  OTHER AIRPORT OBSERVATIONS IN OUR AREA  *****

CITY           SKY/WX    TMP DP  RH WIND       PRES   REMARKS
WALHALLA         N/A     66  66 100 N10       29.94S
GRAFTON AIRPOR CLOUDY    66  66 100 N9        29.90S
VALLEY CITY AR FAIR      64  64 100 NW6       29.91S
CANDO          CLOUDY    63  63 100 N10       29.97R FOG
CAVALIER APRT  CLOUDY    66  66 100 N7        29.92S FOG
GWINNER        SUNNY     68  68 100 N8        29.90F
SHEYENNE NWR     N/A     65  65  99 W2        29.95S
ROLLA          CLOUDY    59  59 100 N13       30.00R FOG
 ***** THE ABOVE OBSERVATIONS ARE NON NWS ARE NOT QUALITY
       CONTROLLED AND MAY MIS-REPORT RAIN FOR SNOW...
$$

  *****  WEATHER ACROSS NORTHERN MINNESOTA  *****

CITY           SKY/WX    TMP DP  RH WIND       PRES   REMARKS
FLAG ISLAND    PTCLDY    66  63  88 CALM      29.91S
WARROAD        CLOUDY    68  64  88 E5        29.91F
ROSEAU         PTCLDY    66  63  88 CALM      29.91S
HALLOCK        DRIZZLE   66  64  94 N5        29.90S
THF RVR FALLS  CLOUDY    68  66  94 CALM      29.90S
BAUDETTE       CLOUDY    66  63  90 E5        29.91S
WASKISH        CLOUDY    66  64  94 CALM      29.92R
CROOKSTON      PTCLDY    70  68  94 CALM      29.89S
$$
  *****  WEATHER ACROSS CENTRAL AND WEST MINNESOTA  *****

CITY           SKY/WX    TMP DP  RH WIND       PRES   REMARKS
FOSSTON        CLOUDY    66  63  88 CALM      29.91S
BEMIDJI        CLOUDY    67  66  95 E5        29.92R
PARK RAPIDS    CLOUDY    68  67  96 NE3       29.91S FOG
ELBOW LAKE     FAIR      68  67  98 E5        29.88S
WADENA         CLOUDY    66  66 100 CALM      29.90S FOG
DETROIT LAKES  CLOUDY    68  68 100 CALM      29.92R
MOORHEAD       FOG       66  66 100 CALM      29.89R VSB 1/2
FERGUS FALLS   PTCLDY    66  66 100 CALM      29.88S FOG
MORRIS MN      FOG       66  66 100 CALM      29.87S VSB 1/4
STAPLES        FOG       66  66 100 CALM      29.90S VSB 1/2
$$
  *****  WEATHER ELSEWHERE ACROSS MINNESOTA  *****

CITY           SKY/WX    TMP DP  RH WIND       PRES   REMARKS
DULUTH         FOG       63  60  90 E7        29.91S VSB 3/4
INTRNTL FALLS  CLOUDY    64  60  87 CALM      29.93S
ELY            CLOUDY    63  57  82 E3        29.94S
CLOQUET        CLOUDY    61  61 100 E7        29.91S FOG
WHEATON        FOG       64  63  94 CALM      29.89S VSB<1/4
BRAINERD       FOG       64  64 100 NE3       29.90F VSB 1
HIBBING        CLOUDY    65  60  84 CALM      29.92S
ALEXANDRIA     CLOUDY    68  67  96 NE3       29.91R
SAINT CLOUD    FOG       72  70  93 CALM      29.87S VSB 1/4
MINNEAPOLIS    CLOUDY    73  72  96 NW7       29.85F
$$

  *****  WEATHER ACROSS SOUTH DAKOTA  *****

CITY           SKY/WX    TMP DP  RH WIND       PRES   REMARKS
SIOUX FALLS    LGT RAIN  69  67  93 CALM      29.89F
BROOKINGS      NOT AVBL
WATERTOWN      FOG       65  65 100 CALM      29.91F VSB 1/4
HURON          CLEAR     62  61  96 CALM      29.91S
SISSETON         N/A     65  65 100 CALM      29.88S
ABERDEEN       CLEAR     64  63  96 NW3       29.90F
MITCHELL       CLEAR     67  65  93 W3        29.92R
PIERRE         PTCLDY    66  63  90 E8        29.91F
MOBRIDGE       MOCLDY    67  63  87 E10       29.91R
RAPID CITY     PTCLDY    63  57  81 N9        30.00R
$$

  *****  SOME WEATHER IN NEARBY STATES *****

CITY           SKY/WX    TMP DP  RH WIND       PRES   REMARKS
GLASGOW MT     CLOUDY    60  57  89 E6        30.07S
GREAT FALLS MT CLOUDY    53  49  86 NE10      30.14F
CHEYENNE WY    CLOUDY    60  46  59 W8        30.20S
SCOTTSBLUFF NE MOCLDY    66  53  63 NW5       30.04F
OMAHA NE       CLOUDY    76  73  91 N7        29.86S
DES MOINES IA  CLOUDY    80  75  84 S7        29.85S
DAVENPORT IA   PTCLDY    73  72  96 E5        29.87F FOG
CHICAGO IL     TSTM      74  70  87 SE8       29.89F FOG
EAU CLAIRE WI  CLEAR     72  71  97 S3        29.84F
LA CROSSE WI   PTCLDY    75  71  87 S7        29.86F
$$

  *****  SOME NATIONAL WEATHER *****

CITY           SKY/WX    TMP DP  RH WIND       PRES   REMARKS
LA GUARDIA NY  CLOUDY    68  64  87 SE3       30.02R
RALEIGH NC     PTCLDY    74  71  91 CALM      30.02F
ATLANTA GA     CLEAR     75  71  87 NW8       30.11F
NEW ORLEANS LA PTCLDY    77  73  87 SW3       30.07F
OKLAHOMA CITY  CLEAR     79  66  64 S10       29.95S
ALBUQUERQUE NM MOCLDY    72  47  40 S9        30.13R
SALT LAKE CITY MOCLDY    63  52  67 E6        30.01F
LOS ANGELES CA PTCLDY    68  61  78 W8        29.96S
BOISE ID       CLEAR     71  44  37 SE12      29.88F
SEATTLE WA     CLEAR     59  51  75 N3        30.00S
$$

*** WEATHER ACROSS MANITOBA...SASKATCHEWAN AND ONTARIO ***
                ***ONTARIO***

CITY           SKY/WX    TMP DP  RH WIND       PRES   REMARKS
GERALDTON      MOCLDY    64  63  94 CALM      30.00F
THUNDER BAY    CLOUDY    61  59  94 E8        29.97S
SIOUX LOOKOUT  MOCLDY    64  61  88 S3        29.96S
TORONTO        MOCLDY    64  63  94 NW8       29.99R
BIG TROUT LK   MOCLDY    64  61  88 S6        29.95S
PICKLE LAKE    NOT AVBL
DRYDEN         CLOUDY    64  63  94 SE3       29.95F
KENORA         CLOUDY    64  63  94 SE3       29.95S
$$
                *** MANITOBA***

CITY           SKY/WX    TMP DP  RH WIND       PRES   REMARKS
BRANDON        MOCLDY    61  59  94 N6        30.01S
DAUPHIN        CLOUDY    59  57  94 N8        30.04R
ISLAND LAKE    DRIZZLE   59  59 100 N6        29.97R
PILOT MOUND      N/A     61  61 100 N12         N/A
THE PAS        MOCLDY    59  54  82 N8        30.09F
THOMPSON       MOCLDY    52  52 100 N7        30.10R
WINNIPEG       CLOUDY    66  64  94 N10       29.94R
LYNN LAKE      CLOUDY    48  46  93 MISG      30.17R
CHURCHILL      CLOUDY    48  46  93 N18       30.06S
GILLAM         DRIZZLE   48  48 100 N13G18    30.06R
$$
                ***SASKATCHEWAN***

CITY           SKY/WX    TMP DP  RH WIND       PRES   REMARKS
ESTEVAN        CLOUDY    61  57  88 NE6       30.06S
KINDERSLEY     MOCLDY    48  46  93 NE7       30.21S
LLOYDMINSTER   CLOUDY    50  45  81 N5        30.25S
PRINCE ALBERT  CLOUDY    54  50  87 NW3       30.19S
REGINA         NOT AVBL
YORKTON        CLOUDY    57  55  94 N7        30.09S
N. BATTLEFORD  CLEAR     46  45  93 N5        30.24S
LA RONGE       PTCLDY    52  46  82 NW6       30.20R
SASKATOON      MOCLDY    54  50  87 N6        30.21R
SWIFT CURRENT  LGT RAIN  54  54 100 NE15G21   30.16R FOG
$$
NOTE: THESE ARE AUTOMATED STATIONS WITH LIMITED QUALITY CONTROL
      "FAIR" INDICATES FEW OR NO CLOUDS BELOW 12,000 FEET WITH NO
      SIGNIFICANT WEATHER AND/OR OBSTRUCTIONS TO VISIBILITY.
      SKY/WX - SKY CONDITION AND SIGNIFICANT WEATHER.
      TMP - AIR TEMPERATURE.    DP   - DEWPOINT TEMPERATURE.
      RH  - RELATIVE HUMIDITY.  PRES - PRESSURE.
      HX  - HEAT INDEX.         WCI  - WIND CHILL INDEX.
$


USA.gov is the U.S. government's official web portal to all federal, state and local government web resources and services.